Home > Weather > Köniz > Past weeks

Flag for Switzerland Past Weather in Köniz, Bern, Switzerland — Yesterday and Last 2 Weeks

Now
57 °F

Cool.


Feels Like: 56 °F
Forecast: 56 / 80 °F
Wind: 6 mph from East

Location: Bern / Belp

Current Time: Jul 28, 2016 at 5:05:20 AM

Latest Report: Jul 28, 2016 at 4:20 AM


Visibility: N/A

Pressure: 30.12 "Hg (28.11 "Hg at 579m altitude)

Humidity: 100%

Dew Point: 57 °F

Location of KönizLocation

Past Weather in Köniz — Graph

°F

Köniz Temperature Yesterday

Maximum temperature yesterday: 81 °F (at 3:50 PM)
Minimum temperature yesterday: 59 °F (at 6:20 AM)
Average temperature yesterday: 69 °F

High & Low Weather Summary for the Past Weeks

 TemperatureHumidityPressure
High91 °F (Jul 19, 5:50 PM)100% (Jul 13, 3:20 AM)30.33 "Hg (Jul 13, 3:20 AM)
Low43 °F (Jul 16, 4:50 AM)26% (Jul 19, 5:20 PM)29.98 "Hg (Jul 20, 6:20 PM)
Average66 °F77%30.14 "Hg
* Reported Jul 13 3:20 AM — Jul 28 3:50 AM, Köniz, Weather by CustomWeather, © 2016

Note: Actual official high and low records may vary slightly from our data, if they occured in-between our weather recording intervals... More about our weather records

Advertising

Köniz Weather History for the Previous 24 Hours

Scroll right to see more
 ConditionsComfort  
Time TempWeatherWind HumidityBarometerVisibility
3:50 AM
Thu, Jul 28
59 °FPassing clouds.5 mph94%30.12 "HgN/A
3:20 AM61 °FPassing clouds.7 mph94%30.12 "HgN/A
2:50 AM59 °FPartly cloudy.6 mph94%30.12 "HgN/A
2:20 AM59 °FPassing clouds.7 mph94%30.12 "HgN/A
1:50 AM59 °FOvercast.6 mph100%30.12 "HgN/A
1:20 AM59 °FCool.5 mph94%30.12 "HgN/A
12:50 AM59 °FCool.3 mph94%30.12 "HgN/A
12:20 AM61 °FPassing clouds.5 mph88%30.12 "HgN/A
11:50 PM
Wed, Jul 27
61 °FClear.5 mph88%30.12 "Hg10 mi
11:20 PM63 °FMild.5 mph83%30.12 "HgN/A
10:50 PM64 °FPassing clouds.12 mph78%30.12 "HgN/A
10:20 PM66 °FPartly cloudy.9 mph78%30.12 "HgN/A
9:50 PM68 °FBroken clouds.10 mph78%30.12 "HgN/A
9:20 PM70 °FBroken clouds.8 mph73%30.09 "HgN/A
8:50 PM70 °FMore clouds than sun.6 mph73%30.09 "HgN/A
8:20 PM72 °FPartly sunny.3 mph69%30.09 "HgN/A
7:50 PM72 °FThundershowers. Scattered clouds.10 mph57%30.09 "HgN/A
7:20 PM73 °FThundershowers. Partly sunny.8 mph61%30.07 "HgN/A
6:50 PM75 °FBroken clouds.9 mph54%30.07 "HgN/A
6:20 PM79 °FBroken clouds.9 mph48%30.04 "HgN/A
5:50 PM81 °FScattered clouds.12 mph51%30.04 "HgN/A
5:20 PM79 °FScattered clouds.8 mph51%30.04 "HgN/A
4:50 PM79 °FScattered clouds.9 mph54%30.04 "HgN/A
4:20 PM81 °FScattered clouds.8 mph45%30.07 "HgN/A
3:50 PM81 °FScattered clouds.7 mph51%30.07 "HgN/A
3:20 PM77 °FScattered clouds.6 mph61%30.07 "HgN/A
2:50 PM79 °FBroken clouds.7 mph58%30.07 "HgN/A
2:20 PM77 °FScattered clouds.5 mph61%30.07 "HgN/A
1:50 PM77 °FScattered clouds.3 mph65%30.09 "HgN/A
1:20 PM77 °FPartly sunny.2 mph61%30.09 "HgN/A
12:50 PM73 °FScattered clouds.6 mph69%30.09 "HgN/A
12:20 PM75 °FPartly sunny.8 mph65%30.09 "HgN/A
11:50 AM73 °FBroken clouds.3 mph69%30.12 "HgN/A
11:20 AM72 °FScattered clouds.5 mph73%30.12 "HgN/A
10:50 AM70 °FPartly sunny.2 mph73%30.12 "HgN/A
10:20 AM70 °FPartly sunny.2 mph78%30.12 "HgN/A
9:50 AM70 °FPartly sunny.3 mph78%30.12 "HgN/A
9:20 AM68 °FPartly sunny.3 mph78%30.12 "HgN/A
8:50 AM68 °FPartly sunny.5 mph83%30.12 "HgN/A
8:20 AM64 °FPartly sunny.5 mph88%30.12 "HgN/A
7:50 AM64 °FPartly sunny.5 mph94%30.12 "HgN/A
7:20 AM63 °FPartly sunny.5 mph94%30.12 "HgN/A
6:50 AM61 °FPassing clouds.5 mph94%30.09 "HgN/A
6:20 AM59 °FPassing clouds.6 mph100%30.09 "HgN/A
5:50 AM61 °FClear.3 mph94%30.09 "Hg10 mi
5:20 AM61 °FPassing clouds.5 mph94%30.09 "HgN/A
Weather by CustomWeather, © 2016

See weather overviewHow to use our weather pages